�N����,����,�~����,�C��,���x,�C��,����,���ϕ���,�ő�u�ԕ���,�ő厞����,���˗�,�I�_���x,�n�����x,�ő啗���N��,DTYPE
"21/02/12","00:10",0.0,4.3,85.7,1018.7,311.6,1.0,2.2,307.9,0.00,2.2,7.1,"00:09:20",1
"21/02/12","00:20",0.0,4.2,86.2,1018.7,292.5,0.8,1.6,302.2,0.00,2.1,7.2,"00:10:08",1
"21/02/12","00:30",0.0,4.4,86.4,1018.5,310.4,1.2,1.9,314.7,0.00,2.4,7.0,"00:26:24",1
"21/02/12","00:40",0.0,4.0,86.6,1018.5,291.8,1.5,2.5,319.8,0.00,2.0,7.2,"00:33:20",1
"21/02/12","00:50",0.0,3.9,87.0,1018.7,316.3,2.1,2.7,323.7,0.00,2.0,7.1,"00:48:24",1
"21/02/12","01:00",0.0,3.7,87.3,1018.5,301.4,1.3,2.4,327.3,0.00,1.8,7.2,"00:50:08",1
"21/02/12","01:10",0.0,3.8,87.8,1018.2,305.7,2.0,2.8,326.0,0.00,2.0,7.1,"01:09:28",1
"21/02/12","01:20",0.0,4.3,88.1,1018.2,319.5,3.1,4.2,320.9,0.00,2.5,7.1,"01:12:32",1
"21/02/12","01:30",0.0,4.8,87.9,1018.5,316.5,3.4,4.4,312.0,0.00,3.0,7.1,"01:24:56",1
"21/02/12","01:40",0.0,4.8,87.6,1018.7,300.7,2.7,4.0,321.5,0.00,3.0,6.8,"01:37:20",1
"21/02/12","01:50",0.0,4.8,87.3,1018.7,303.3,3.0,4.5,312.2,0.00,2.9,6.9,"01:43:28",1
"21/02/12","02:00",0.0,4.7,86.9,1018.7,314.5,2.3,3.1,318.9,0.00,2.7,6.8,"01:52:24",1
"21/02/12","02:10",0.0,4.4,86.8,1018.7,323.8,2.2,3.2,323.9,0.00,2.4,7.0,"02:04:00",1
"21/02/12","02:20",0.0,4.2,86.9,1018.7,315.1,2.1,3.3,315.3,0.00,2.3,7.0,"02:19:44",1
"21/02/12","02:30",0.0,4.1,86.8,1018.5,296.8,1.3,1.9,300.2,0.00,2.1,6.9,"02:27:36",1
"21/02/12","02:40",0.0,3.9,86.9,1018.5,296.9,1.2,2.4,319.2,0.00,2.0,6.7,"02:36:32",1
"21/02/12","02:50",0.0,3.7,87.0,1019.2,306.2,1.5,2.8,324.7,0.00,1.8,6.6,"02:47:12",1
"21/02/12","03:00",0.0,3.5,87.3,1018.7,319.9,2.1,2.9,324.2,0.00,1.6,6.6,"02:57:36",1
"21/02/12","03:10",0.0,3.2,87.6,1018.7,304.8,1.5,2.5,321.3,0.00,1.4,6.8,"03:00:32",1
"21/02/12","03:20",0.0,3.6,88.1,1018.2,295.5,2.3,5.0,314.9,0.00,1.9,6.7,"03:10:02",1
"21/02/12","03:30",0.0,3.9,88.0,1018.2,293.2,2.7,4.7,305.2,0.00,2.1,6.7,"03:20:56",1
"21/02/12","03:40",0.0,4.0,88.1,1018.0,278.0,2.0,2.6,297.2,0.00,2.3,6.7,"03:30:56",1
"21/02/12","03:50",0.0,4.1,87.9,1018.0,292.4,3.1,4.3,318.3,0.00,2.3,6.6,"03:49:36",1
"21/02/12","04:00",0.0,4.5,87.3,1018.0,309.9,3.6,5.2,327.2,0.00,2.6,6.7,"03:52:16",1
"21/02/12","04:10",0.0,4.5,86.7,1018.2,322.4,2.6,4.3,307.6,0.00,2.5,6.6,"04:07:44",1
"21/02/12","04:20",0.0,4.8,86.1,1018.7,323.0,3.5,4.8,321.4,0.00,2.7,6.6,"04:19:36",1
"21/02/12","04:30",0.0,4.9,85.5,1018.7,326.8,3.4,5.8,327.5,0.00,2.7,6.5,"04:21:28",1
"21/02/12","04:40",0.0,4.9,85.3,1019.0,326.6,4.1,5.1,327.3,0.00,2.7,6.6,"04:36:48",1
"21/02/12","04:50",0.0,4.8,84.9,1019.4,321.2,2.8,5.6,316.4,0.00,2.5,6.7,"04:43:44",1
"21/02/12","05:00",0.0,4.4,84.7,1019.2,299.0,1.8,2.7,324.9,0.00,2.1,6.5,"04:53:04",1
"21/02/12","05:10",0.0,4.2,84.8,1019.4,281.2,1.0,1.3,267.6,0.00,1.9,6.3,"05:01:04",1
"21/02/12","05:20",0.0,4.1,85.1,1019.4,291.2,1.8,3.1,310.0,0.00,1.9,6.5,"05:10:02",1
"21/02/12","05:30",0.0,3.9,85.4,1019.7,300.6,2.5,3.1,311.9,0.00,1.7,6.4,"05:22:00",1
"21/02/12","05:40",0.0,3.7,85.8,1019.9,288.4,1.8,2.7,311.6,0.00,1.6,6.4,"05:33:36",1
"21/02/12","05:50",0.0,3.7,86.2,1019.7,306.3,2.7,3.6,325.1,0.00,1.7,6.4,"05:49:52",1
"21/02/12","06:00",0.0,3.8,86.5,1019.4,312.0,3.0,4.3,312.8,0.00,1.8,6.3,"05:51:12",1
"21/02/12","06:10",0.0,3.7,86.6,1019.4,305.7,2.2,3.9,315.8,0.00,1.7,6.3,"06:01:36",1
"21/02/12","06:20",0.0,3.7,86.7,1019.7,294.7,2.2,2.9,322.9,0.00,1.7,6.2,"06:10:16",1
"21/02/12","06:30",0.0,3.7,86.7,1020.1,298.6,2.3,3.2,317.7,0.00,1.7,6.3,"06:27:20",1
"21/02/12","06:40",0.0,3.7,86.7,1019.9,308.9,2.7,3.3,308.9,0.00,1.7,6.5,"06:39:20",1
"21/02/12","06:50",0.0,3.7,86.5,1020.1,300.6,2.3,3.9,324.8,0.00,1.7,6.3,"06:40:24",1
"21/02/12","07:00",0.0,3.7,86.5,1020.1,317.2,2.3,3.2,320.2,0.00,1.7,6.3,"06:58:48",1
"21/02/12","07:10",0.0,3.8,86.6,1020.1,324.5,2.5,3.9,323.9,0.00,1.8,6.3,"07:03:44",1
"21/02/12","07:20",0.0,3.8,86.7,1020.4,317.3,2.1,2.7,315.0,0.00,1.8,6.2,"07:18:40",1
"21/02/12","07:30",0.0,4.1,86.9,1020.6,313.0,2.7,4.4,300.2,0.00,2.2,6.4,"07:20:02",1
"21/02/12","07:40",0.0,4.6,86.6,1020.6,322.6,4.4,5.8,317.1,0.00,2.6,6.2,"07:36:56",1
"21/02/12","07:50",0.0,4.4,86.2,1020.8,324.5,3.4,4.8,327.2,0.00,2.3,6.4,"07:40:08",1
"21/02/12","08:00",0.0,4.3,85.9,1020.8,319.3,3.1,4.3,329.6,0.00,2.2,6.4,"07:50:08",1
"21/02/12","08:10",0.0,4.5,85.7,1021.1,308.4,1.6,3.4,334.9,0.01,2.4,6.4,"08:03:52",1
"21/02/12","08:20",0.0,4.5,85.5,1021.3,307.4,1.5,2.5,306.8,0.02,2.3,6.5,"08:15:12",1
"21/02/12","08:30",0.0,4.7,85.4,1021.5,312.1,2.3,3.3,317.2,0.03,2.5,6.4,"08:25:44",1
"21/02/12","08:40",0.0,5.1,85.2,1021.8,301.7,2.0,3.3,320.3,0.06,2.9,6.4,"08:35:28",1
"21/02/12","08:50",0.0,5.5,84.9,1021.5,308.8,2.1,4.3,323.6,0.08,3.2,6.7,"08:43:36",1
"21/02/12","09:00",0.0,5.9,84.5,1021.3,305.2,1.3,2.2,317.4,0.09,3.5,6.7,"08:56:40",1
"21/02/12","09:10",0.0,6.2,83.7,1021.5,276.4,0.8,1.6,303.8,0.09,3.7,6.8,"09:00:08",1
"21/02/12","09:20",0.0,6.5,82.9,1021.5,271.6,0.7,1.1,287.8,0.08,3.8,6.8,"09:11:12",1
"21/02/12","09:30",0.0,6.8,82.5,1021.8,261.9,0.3,1.2,311.4,0.10,4.1,7.0,"09:26:00",1
"21/02/12","09:40",0.0,7.2,81.6,1021.5,281.4,1.0,2.4,306.0,0.13,4.3,7.1,"09:38:10",1
"21/02/12","09:50",0.0,7.6,80.8,1022.0,300.4,1.6,2.2,324.3,0.14,4.6,7.3,"09:43:04",1
"21/02/12","10:00",0.0,8.1,79.1,1022.3,302.2,1.6,2.5,304.2,0.18,4.7,7.4,"09:59:52",1
"21/02/12","10:10",0.0,8.0,76.9,1021.8,302.4,1.6,2.1,296.9,0.09,4.2,7.3,"10:00:08",1
"21/02/12","10:20",0.0,8.2,75.6,1022.0,306.2,1.3,2.2,266.9,0.09,4.2,7.4,"10:10:02",1
"21/02/12","10:30",0.0,8.4,74.9,1022.3,290.4,1.7,2.9,312.1,0.12,4.3,7.5,"10:20:02",1
"21/02/12","10:40",0.0,8.4,74.6,1022.5,304.4,2.7,3.4,312.8,0.16,4.2,7.7,"10:33:28",1
"21/02/12","10:50",0.0,9.1,73.9,1022.3,301.9,2.3,3.9,321.8,0.22,4.7,7.8,"10:41:04",1
"21/02/12","11:00",0.0,9.6,71.5,1022.3,286.9,1.6,3.1,327.9,0.22,4.7,8.1,"10:51:12",1
"21/02/12","11:10",0.0,10.2,68.8,1022.0,327.9,0.8,2.1,319.7,0.29,4.8,8.3,"11:02:16",1
"21/02/12","11:20",0.0,10.7,67.3,1022.0,318.9,0.8,1.8,335.8,0.31,4.9,8.7,"11:11:20",1
"21/02/12","11:30",0.0,11.4,65.0,1022.3,268.3,0.7,2.1,245.2,0.38,5.1,8.7,"11:26:08",1
"21/02/12","11:40",0.0,12.0,61.7,1021.8,250.3,0.8,3.1,199.9,0.37,4.9,8.9,"11:36:16",1
"21/02/12","11:50",0.0,12.1,60.2,1021.8,184.6,1.2,2.6,213.0,0.34,4.7,9.3,"11:42:00",1
"21/02/12","12:00",0.0,12.4,57.6,1021.5,213.9,1.0,2.8,188.9,0.32,4.3,9.4,"11:54:16",1
"21/02/12","12:10",0.0,12.5,56.6,1021.1,190.6,1.2,2.2,171.3,0.31,4.2,9.5,"12:08:08",1
"21/02/12","12:20",0.0,12.7,55.1,1021.1,231.2,1.0,2.4,233.4,0.29,4.0,9.7,"12:17:12",1
"21/02/12","12:30",0.0,12.9,54.0,1020.8,230.4,1.1,2.2,206.4,0.31,3.9,10.0,"12:26:08",1
"21/02/12","12:40",0.0,13.3,53.3,1020.8,224.4,1.1,2.5,223.9,0.33,4.1,10.1,"12:36:00",1
"21/02/12","12:50",0.0,13.6,52.6,1020.6,198.5,1.5,3.3,202.3,0.36,4.1,10.3,"12:44:32",1
"21/02/12","13:00",0.0,14.2,52.1,1020.8,211.2,1.1,2.7,148.1,0.39,4.6,10.4,"12:52:40",1
"21/02/12","13:10",0.0,14.6,49.4,1020.6,236.5,1.3,2.8,219.1,0.42,4.2,10.9,"13:08:48",1
"21/02/12","13:20",0.0,14.7,48.8,1020.4,269.4,1.3,2.8,233.6,0.41,4.1,11.0,"13:11:52",1
"21/02/12","13:30",0.0,14.9,49.8,1020.4,309.0,1.8,3.2,343.3,0.39,4.6,11.2,"13:24:48",1
"21/02/12","13:40",0.0,15.3,47.4,1020.1,263.0,1.7,2.8,231.9,0.40,4.2,11.5,"13:35:04",1
"21/02/12","13:50",0.0,15.4,47.4,1020.1,281.8,1.6,2.6,299.0,0.37,4.3,11.5,"13:45:12",1
"21/02/12","14:00",0.0,16.0,47.2,1019.9,278.5,1.5,2.6,252.5,0.40,4.8,11.8,"13:50:48",1
"21/02/12","14:10",0.0,15.9,47.8,1019.7,233.9,1.3,4.0,227.2,0.35,4.9,11.7,"14:04:32",1
"21/02/12","14:20",0.0,15.4,48.7,1020.1,213.1,1.6,3.3,232.7,0.21,4.7,11.8,"14:10:02",1
"21/02/12","14:30",0.0,15.0,51.0,1019.7,230.6,1.5,2.8,214.0,0.20,5.0,11.8,"14:20:08",1
"21/02/12","14:40",0.0,15.1,50.4,1019.7,229.9,1.6,4.0,233.8,0.21,4.9,11.9,"14:36:32",1
"21/02/12","14:50",0.0,14.8,50.9,1019.7,254.9,1.7,3.1,228.1,0.14,4.8,11.9,"14:40:40",1
"21/02/12","15:00",0.0,14.9,52.2,1019.7,241.5,1.1,1.8,245.4,0.13,5.2,11.8,"14:55:36",1
"21/02/12","15:10",0.0,15.0,51.3,1019.7,39.4,0.8,2.5,128.2,0.13,5.1,11.9,"15:02:16",1
"21/02/12","15:20",0.0,14.9,51.2,1019.7,125.8,0.6,1.6,146.5,0.12,5.0,11.9,"15:14:24",1
"21/02/12","15:30",0.0,14.9,51.8,1019.9,131.5,0.7,1.9,124.0,0.10,5.1,11.7,"15:20:08",1
"21/02/12","15:40",0.0,14.8,52.6,1019.9,107.2,0.8,2.2,111.5,0.09,5.3,11.5,"15:36:08",1
"21/02/12","15:50",0.0,14.9,52.8,1019.9,188.4,0.8,2.1,132.7,0.09,5.4,11.7,"15:48:48",1
"21/02/12","16:00",0.0,14.9,53.3,1019.9,311.1,0.6,1.6,110.6,0.08,5.5,11.6,"15:52:08",1
"21/02/12","16:10",0.0,14.9,54.5,1019.9,126.1,0.8,2.2,151.2,0.08,5.9,11.4,"16:01:04",1
"21/02/12","16:20",0.0,14.7,54.5,1019.9,116.9,0.7,1.8,115.5,0.07,5.7,11.5,"16:17:52",1
"21/02/12","16:30",0.0,14.6,55.5,1020.1,119.1,0.7,1.6,99.0,0.07,5.8,11.4,"16:25:12",1
"21/02/12","16:40",0.0,14.7,54.8,1020.1,82.3,0.7,1.6,33.8,0.07,5.7,11.3,"16:35:12",1
"21/02/12","16:50",0.0,14.8,54.6,1020.4,162.6,0.3,1.8,188.7,0.07,5.8,11.4,"16:49:28",1
"21/02/12","17:00",0.0,14.7,55.8,1020.6,128.4,1.0,1.9,109.4,0.05,6.0,11.5,"16:57:12",1
"21/02/12","17:10",0.0,14.5,56.0,1020.4,140.7,1.3,2.5,113.3,0.04,5.9,11.3,"17:07:20",1
"21/02/12","17:20",0.0,14.2,56.8,1020.4,136.4,1.8,3.2,118.6,0.02,5.8,11.3,"17:19:44",1
"21/02/12","17:30",0.0,13.9,58.4,1020.4,134.5,1.5,3.3,125.7,0.01,5.9,11.2,"17:24:34",1
"21/02/12","17:40",0.0,13.6,59.4,1020.8,136.9,1.2,2.7,115.9,0.00,5.9,11.0,"17:37:04",1
"21/02/12","17:50",0.0,13.3,60.4,1021.1,114.5,1.0,2.1,141.8,0.00,5.8,10.9,"17:40:32",1
"21/02/12","18:00",0.0,12.9,61.6,1021.1,16.4,1.0,2.0,335.5,0.00,5.7,10.9,"17:58:30",1
"21/02/12","18:10",0.0,12.1,64.0,1021.3,330.6,1.6,2.0,337.1,0.00,5.5,10.7,"18:06:04",1
"21/02/12","18:20",0.0,11.3,66.5,1021.3,306.5,1.6,1.9,285.4,0.00,5.3,10.4,"18:13:26",1
"21/02/12","18:30",0.0,10.8,68.6,1021.3,305.2,1.6,2.0,317.2,0.00,5.3,10.2,"18:24:44",1
"21/02/12","18:40",0.0,10.5,70.3,1021.3,325.7,1.7,2.2,319.9,0.00,5.4,10.3,"18:37:36",1
"21/02/12","18:50",0.0,9.8,71.3,1021.3,323.9,1.3,1.9,326.3,0.00,4.9,10.2,"18:45:36",1
"21/02/12","19:00",0.0,9.3,72.6,1021.8,318.2,1.7,2.5,322.2,0.00,4.7,9.9,"18:50:56",1
"21/02/12","19:10",0.0,9.0,73.7,1021.3,315.4,1.8,2.2,319.3,0.00,4.6,9.6,"19:01:28",1
"21/02/12","19:20",0.0,8.9,74.9,1021.5,311.5,2.0,2.5,323.1,0.00,4.7,9.8,"19:17:52",1
"21/02/12","19:30",0.0,8.7,76.2,1021.5,314.1,1.6,2.2,309.0,0.00,4.8,9.8,"19:25:52",1
"21/02/12","19:40",0.0,8.5,77.3,1021.3,313.1,1.6,2.2,315.0,0.00,4.8,9.5,"19:36:08",1
"21/02/12","19:50",0.0,8.1,78.4,1021.5,301.1,1.6,2.2,312.3,0.00,4.6,9.4,"19:42:24",1
"21/02/12","20:00",0.0,8.2,79.7,1021.8,321.2,1.8,2.6,327.8,0.00,4.9,9.2,"19:53:20",1
"21/02/12","20:10",0.0,7.8,80.8,1021.5,313.7,1.8,2.4,318.8,0.00,4.8,9.1,"20:01:44",1
"21/02/12","20:20",0.0,7.6,81.8,1021.3,304.1,1.6,2.1,311.0,0.00,4.7,9.0,"20:12:08",1
"21/02/12","20:30",0.0,7.5,82.5,1021.3,313.8,1.6,2.2,323.2,0.00,4.8,8.8,"20:27:04",1
"21/02/12","20:40",0.0,7.4,83.3,1021.3,303.4,1.5,1.9,311.9,0.00,4.8,9.0,"20:37:20",1
"21/02/12","20:50",0.0,7.5,83.8,1021.5,303.3,1.6,2.0,317.0,0.00,5.0,8.9,"20:46:00",1
"21/02/12","21:00",0.0,7.5,84.4,1021.8,317.2,1.5,1.9,321.2,0.00,5.1,8.7,"20:52:16",1
"21/02/12","21:10",0.0,7.5,84.8,1021.5,313.9,1.2,2.1,320.9,0.00,5.2,8.7,"21:06:48",1
"21/02/12","21:20",0.0,7.2,85.1,1021.5,295.0,1.1,1.7,304.4,0.00,4.9,8.6,"21:19:52",1
"21/02/12","21:30",0.0,7.1,85.4,1021.8,309.7,1.6,2.5,320.6,0.00,4.9,8.5,"21:28:56",1
"21/02/12","21:40",0.0,6.9,85.9,1021.5,311.2,1.3,2.2,323.7,0.00,4.7,8.4,"21:39:36",1
"21/02/12","21:50",0.0,6.6,86.2,1021.5,304.0,1.2,2.4,324.9,0.00,4.5,8.4,"21:40:08",1
"21/02/12","22:00",0.0,6.6,86.7,1021.1,314.2,1.2,2.1,314.8,0.00,4.6,8.1,"21:55:28",1
"21/02/12","22:10",0.0,6.3,87.3,1021.3,334.9,1.5,2.8,324.3,0.00,4.4,8.2,"22:01:04",1
"21/02/12","22:20",0.0,6.3,87.7,1021.5,316.6,1.8,2.7,322.4,0.00,4.5,8.3,"22:18:08",1
"21/02/12","22:30",0.0,6.0,88.3,1021.3,312.7,1.6,2.4,321.8,0.00,4.3,8.2,"22:20:16",1
"21/02/12","22:40",0.0,5.9,88.6,1021.1,308.0,1.5,1.9,317.5,0.00,4.2,8.2,"22:32:32",1
"21/02/12","22:50",0.0,6.0,89.2,1021.1,317.8,1.3,2.6,324.3,0.00,4.4,8.0,"22:49:52",1
"21/02/12","23:00",0.0,5.8,89.5,1021.1,322.6,1.5,2.7,325.5,0.00,4.2,7.8,"22:53:12",1
"21/02/12","23:10",0.0,5.7,89.9,1021.3,304.4,1.3,2.0,312.0,0.00,4.2,7.9,"23:04:56",1
"21/02/12","23:20",0.0,5.6,90.3,1021.1,302.2,1.1,1.7,314.4,0.00,4.2,7.8,"23:16:48",1
"21/02/12","23:30",0.0,6.0,90.6,1021.5,312.4,1.1,2.2,319.8,0.00,4.6,7.9,"23:27:20",1
"21/02/12","23:40",0.0,6.1,90.8,1021.1,306.4,1.2,1.8,318.7,0.00,4.8,7.7,"23:31:12",1
"21/02/12","23:50",0.0,6.0,91.1,1021.3,305.8,1.3,2.1,317.2,0.00,4.7,7.7,"23:41:52",1
"21/02/12","24:00",0.0,6.1,91.5,1021.1,292.3,1.3,1.9,315.1,0.00,4.9,7.6,"23:59:36",1
